Location: Asheville, NC
(35.6000°N, 82.5500°W)
Time: 11:41:12
(UTC-04:00)

Oscar 11 - Pass Details

Date: 14 March 2018
Orbit: 613 x 627 km, 97.6° (Epoch: 20 June)

Event Time Altitude Azimuth Distance (km) Brightness Sun altitude
Exits shadow 22:00:43 16° 222° (SW) 1,630 9.4 -29.5°
Maximum altitude 22:03:02 24° 264° (W) 1,288 9.2 -30.0°
Drops below altitude 10° 22:06:30 10° 319° (NW) 1,972 10.4 -30.6°
Sets 22:09:03 0° 333° (NNW) 2,882 11.1 -31.1°
